Radiation Dose at Monitoring Post of Fukushima Daini Nuclear Power Station
Date,Time,MP-1(microSv/h),MP-2(microSv/h),MP-3(microSv/h),MP-4(microSv/h),MP-5(microSv/h),MP-6(microSv/h),MP-7(microSv/h),Wind Direction,Wind Velocity(m/s),Rain
2021/07/28,00:00,0.141,0.143,0.208,0.208,0.219,0.116,0.079,-,CALM,Yes
2021/07/28,00:10,0.145,0.143,0.210,0.211,0.220,0.118,0.080,northwest,11.4,Yes
2021/07/28,00:20,0.146,0.145,0.212,0.214,0.223,0.117,0.082,northwest,10.4,Yes
2021/07/28,00:30,0.149,0.144,0.215,0.216,0.221,0.117,0.081,north-northwest,12.9,Yes
2021/07/28,00:40,0.149,0.145,0.218,0.216,0.225,0.119,0.081,northwest,12.2,Yes
2021/07/28,00:50,0.150,0.145,0.216,0.216,0.224,0.118,0.081,northwest,14.3,Yes
2021/07/28,01:00,0.151,0.143,0.217,0.217,0.223,0.118,0.080,northwest,12.6,Yes
2021/07/28,01:10,0.150,0.144,0.217,0.215,0.227,0.118,0.080,northwest,11.4,Yes
2021/07/28,01:20,0.152,0.145,0.218,0.219,0.225,0.119,0.080,northwest,11.4,Yes
2021/07/28,01:30,0.152,0.144,0.219,0.216,0.226,0.118,0.081,northwest,11.8,Yes
2021/07/28,01:40,0.151,0.145,0.218,0.216,0.227,0.119,0.080,northwest,10.9,Yes
2021/07/28,01:50,0.153,0.144,0.220,0.219,0.224,0.118,0.080,northwest,9.8,No
2021/07/28,02:00,0.152,0.144,0.219,0.218,0.225,0.119,0.080,northwest,10.3,No
2021/07/28,02:10,0.153,0.142,0.220,0.219,0.226,0.119,0.079,west-northwest,11.5,No
2021/07/28,02:20,0.153,0.143,0.221,0.220,0.224,0.117,0.079,west-northwest,10.1,No
2021/07/28,02:30,0.152,0.142,0.219,0.217,0.227,0.117,0.079,west-northwest,10.0,No
2021/07/28,02:40,0.153,0.142,0.220,0.218,0.225,0.118,0.077,west-northwest,8.9,No
2021/07/28,02:50,0.153,0.142,0.221,0.220,0.222,0.116,0.077,west-northwest,7.1,No
2021/07/28,03:00,0.153,0.143,0.220,0.216,0.226,0.117,0.076,west-northwest,7.4,No
2021/07/28,03:10,0.152,0.141,0.221,0.220,0.225,0.117,0.077,west-northwest,8.4,No
2021/07/28,03:20,0.155,0.141,0.221,0.218,0.222,0.117,0.077,west-northwest,8.6,No
2021/07/28,03:30,0.154,0.143,0.219,0.216,0.225,0.118,0.077,west,9.5,No
2021/07/28,03:40,0.151,0.140,0.222,0.218,0.224,0.117,0.077,west-northwest,10.4,No
2021/07/28,03:50,0.154,0.141,0.221,0.218,0.222,0.117,0.076,west-northwest,10.4,No
2021/07/28,04:00,0.155,0.142,0.221,0.218,0.225,0.118,0.076,west-northwest,8.5,No
2021/07/28,04:10,0.152,0.142,0.222,0.220,0.223,0.118,0.077,west,7.7,No
2021/07/28,04:20,0.154,0.141,0.224,0.218,0.222,0.118,0.077,west,6.7,No
2021/07/28,04:30,0.154,0.143,0.221,0.218,0.226,0.119,0.077,west,7.9,No
2021/07/28,04:40,0.153,0.142,0.224,0.221,0.225,0.118,0.076,west,5.6,No
2021/07/28,04:50,0.154,0.141,0.223,0.218,0.222,0.118,0.078,west-southwest,4.9,No
2021/07/28,05:00,0.155,0.143,0.222,0.219,0.226,0.119,0.077,west-southwest,6.9,No
2021/07/28,05:10,0.153,0.142,0.225,0.221,0.225,0.119,0.077,west-southwest,8.2,No
2021/07/28,05:20,0.155,0.141,0.225,0.218,0.224,0.118,0.077,west-southwest,4.4,No
2021/07/28,05:30,0.155,0.143,0.221,0.218,0.225,0.119,0.077,southwest,3.1,No
2021/07/28,05:40,0.154,0.142,0.224,0.221,0.225,0.118,0.076,southwest,4.1,No
2021/07/28,05:50,0.155,0.142,0.225,0.218,0.223,0.118,0.078,west,1.4,No
2021/07/28,06:00,0.155,0.143,0.224,0.217,0.223,0.119,0.077,north-northeast,1.0,No
2021/07/28,06:10,0.154,0.143,0.223,0.221,0.227,0.120,0.076,north-northwest,1.8,No
2021/07/28,06:20,0.153,0.142,0.226,0.219,0.224,0.119,0.077,west-southwest,1.8,No
2021/07/28,06:30,0.156,0.142,0.224,0.218,0.223,0.119,0.076,west-southwest,4.4,No
2021/07/28,06:40,0.155,0.143,0.223,0.220,0.226,0.119,0.076,west,2.6,No
2021/07/28,06:50,0.153,0.142,0.225,0.221,0.228,0.120,0.077,south-southwest,1.7,No
2021/07/28,07:00,0.154,0.142,0.225,0.220,0.226,0.120,0.076,south,3.9,No
2021/07/28,07:10,0.156,0.143,0.223,0.218,0.223,0.120,0.077,south,4.6,No
2021/07/28,07:20,0.154,0.143,0.224,0.219,0.223,0.119,0.079,south,3.7,No
2021/07/28,07:30,0.154,0.142,0.228,0.221,0.225,0.119,0.077,south,4.3,No
2021/07/28,07:40,0.155,0.142,0.226,0.221,0.226,0.120,0.077,south,4.3,No
2021/07/28,07:50,0.157,0.141,0.224,0.220,0.225,0.120,0.076,south,5.8,No
2021/07/28,08:00,0.155,0.142,0.224,0.219,0.224,0.121,0.077,south-southwest,5.2,No
2021/07/28,08:10,0.154,0.142,0.223,0.219,0.224,0.120,0.077,south,4.7,No
2021/07/28,08:20,0.154,0.142,0.224,0.219,0.224,0.119,0.077,south,4.7,No
2021/07/28,08:30,0.154,0.142,0.223,0.218,0.225,0.120,0.078,south,5.0,No
2021/07/28,08:40,0.154,0.143,0.226,0.218,0.225,0.120,0.078,south,4.4,No
2021/07/28,08:50,0.154,0.143,0.226,0.220,0.225,0.122,0.077,south,4.3,No
2021/07/28,09:00,0.155,0.143,0.226,0.221,0.226,0.120,0.077,south,3.9,No
2021/07/28,09:10,0.154,0.144,0.227,0.222,0.226,0.121,0.077,south-southeast,5.5,No
2021/07/28,09:20,0.155,0.144,0.226,0.221,0.227,0.121,0.078,south-southeast,6.9,No
2021/07/28,09:30,0.155,0.144,0.226,0.221,0.226,0.121,0.078,south-southeast,8.4,No
2021/07/28,09:40,0.155,0.144,0.226,0.221,0.225,0.121,0.077,south-southeast,8.2,No
2021/07/28,09:50,0.156,0.145,0.228,0.222,0.228,0.121,0.077,south,8.9,No
2021/07/28,10:00,0.155,0.144,0.227,0.223,0.227,0.121,0.078,south-southeast,9.2,No
2021/07/28,10:10,0.155,0.144,0.227,0.220,0.228,0.122,0.078,south-southeast,9.8,No
2021/07/28,10:20,0.155,0.143,0.226,0.220,0.226,0.121,0.077,south-southeast,8.9,Yes
2021/07/28,10:30,0.156,0.144,0.225,0.219,0.225,0.122,0.078,south,6.7,Yes
2021/07/28,10:40,0.156,0.144,0.225,0.217,0.225,0.123,0.079,south-southeast,9.2,Yes
2021/07/28,10:50,0.155,0.145,0.224,0.220,0.226,0.123,0.079,south,9.5,No
2021/07/28,11:00,0.158,0.145,0.229,0.222,0.229,0.123,0.079,south,9.2,No
2021/07/28,11:10,0.156,0.146,0.228,0.222,0.227,0.123,0.079,south-southeast,10.7,No
2021/07/28,11:20,0.156,0.145,0.228,0.221,0.227,0.122,0.079,south-southeast,10.6,No
2021/07/28,11:30,0.157,0.144,0.226,0.221,0.226,0.122,0.079,south-southeast,9.5,No
2021/07/28,11:40,0.156,0.143,0.227,0.221,0.225,0.121,0.078,south,10.9,No
2021/07/28,11:50,0.156,0.142,0.227,0.220,0.224,0.121,0.077,south-southeast,8.1,No
2021/07/28,12:00,0.155,0.144,0.226,0.219,0.226,0.122,0.078,south-southeast,7.0,No
2021/07/28,12:10,0.156,0.143,0.226,0.218,0.226,0.121,0.078,south-southeast,8.2,No
2021/07/28,12:20,0.156,0.144,0.225,0.220,0.225,0.122,0.077,south-southeast,9.5,No
2021/07/28,12:30,0.155,0.143,0.227,0.218,0.226,0.122,0.078,south-southeast,9.0,No
2021/07/28,12:40,0.155,0.144,0.226,0.220,0.226,0.121,0.078,south-southeast,10.7,No
2021/07/28,12:50,0.156,0.144,0.228,0.219,0.227,0.122,0.078,south-southeast,9.6,No
2021/07/28,13:00,0.157,0.144,0.227,0.220,0.226,0.122,0.078,south-southeast,9.3,No
2021/07/28,13:10,0.156,0.143,0.227,0.220,0.227,0.122,0.077,south-southeast,8.7,No
2021/07/28,13:20,0.157,0.144,0.227,0.220,0.229,0.122,0.078,south-southeast,11.5,No
2021/07/28,13:30,0.155,0.144,0.228,0.221,0.227,0.122,0.077,south-southeast,11.4,No
2021/07/28,13:40,0.155,0.144,0.229,0.220,0.227,0.122,0.077,south-southeast,10.7,No
2021/07/28,13:50,0.155,0.144,0.228,0.222,0.226,0.122,0.077,south-southeast,10.9,No
2021/07/28,14:00,0.155,0.145,0.228,0.222,0.226,0.122,0.077,south-southeast,10.4,No
2021/07/28,14:10,0.156,0.145,0.229,0.221,0.227,0.122,0.078,south-southeast,10.1,No
2021/07/28,14:20,0.156,0.143,0.226,0.221,0.227,0.122,0.078,south-southeast,9.5,No
2021/07/28,14:30,0.156,0.143,0.227,0.220,0.226,0.122,0.078,south-southeast,9.2,No
2021/07/28,14:40,0.155,0.143,0.227,0.219,0.225,0.122,0.077,south,9.5,No
2021/07/28,14:50,0.155,0.143,0.226,0.221,0.225,0.123,0.077,south,9.3,No
2021/07/28,15:00,0.154,0.146,0.226,0.223,0.225,0.122,0.078,south,8.3,No
2021/07/28,15:10,0.157,0.145,0.231,0.222,0.229,0.122,0.078,south,8.7,No
2021/07/28,15:20,0.158,0.144,0.228,0.221,0.226,0.122,0.077,south,8.2,No
2021/07/28,15:30,0.157,0.143,0.228,0.221,0.226,0.122,0.076,south,8.2,No
2021/07/28,15:40,0.155,0.143,0.226,0.221,0.224,0.123,0.077,south,8.1,No
2021/07/28,15:50,0.155,0.144,0.226,0.224,0.225,0.123,0.078,south,7.6,No
2021/07/28,16:00,0.155,0.145,0.230,0.222,0.228,0.122,0.078,south,6.6,No
2021/07/28,16:10,0.157,0.144,0.230,0.221,0.227,0.122,0.078,south,6.1,No
2021/07/28,16:20,0.157,0.143,0.226,0.220,0.227,0.122,0.077,south-southeast,6.3,No
2021/07/28,16:30,0.155,0.144,0.226,0.221,0.225,0.122,0.076,south-southeast,6.7,No
2021/07/28,16:40,0.156,0.146,0.227,0.224,0.227,0.123,0.078,south-southeast,7.2,No
2021/07/28,16:50,0.156,0.144,0.231,0.222,0.228,0.122,0.078,south,7.4,No
2021/07/28,17:00,0.157,0.145,0.230,0.221,0.227,0.121,0.077,south-southeast,6.8,No
2021/07/28,17:10,0.157,0.144,0.226,0.219,0.226,0.122,0.077,south,7.3,Yes
2021/07/28,17:20,0.156,0.144,0.225,0.223,0.225,0.124,0.079,south,6.8,Yes
2021/07/28,17:30,0.155,0.145,0.230,0.224,0.228,0.123,0.078,south,7.6,No
2021/07/28,17:40,0.157,0.144,0.230,0.222,0.227,0.122,0.078,south,6.4,No
2021/07/28,17:50,0.157,0.144,0.229,0.221,0.226,0.123,0.077,south,5.9,Yes
2021/07/28,18:00,0.156,0.145,0.229,0.223,0.226,0.124,0.079,south,4.6,Yes
2021/07/28,18:10,0.157,0.147,0.232,0.226,0.230,0.124,0.079,south,5.3,Yes
2021/07/28,18:20,0.158,0.147,0.233,0.225,0.230,0.124,0.079,south,5.0,Yes
2021/07/28,18:30,0.160,0.146,0.230,0.223,0.229,0.124,0.079,south,4.9,Yes
2021/07/28,18:40,0.159,0.149,0.232,0.227,0.229,0.126,0.081,south,4.2,Yes
2021/07/28,18:50,0.159,0.149,0.234,0.227,0.233,0.128,0.082,south,6.4,Yes
2021/07/28,19:00,0.162,0.149,0.234,0.226,0.232,0.128,0.082,south,5.9,Yes
2021/07/28,19:10,0.164,0.152,0.234,0.228,0.232,0.130,0.084,south,5.3,Yes
2021/07/28,19:20,0.162,0.152,0.238,0.230,0.234,0.130,0.086,south,5.7,Yes
2021/07/28,19:30,0.164,0.152,0.235,0.230,0.234,0.131,0.087,south-southwest,4.9,Yes
2021/07/28,19:40,0.166,0.153,0.235,0.229,0.233,0.131,0.087,south,5.4,Yes
2021/07/28,19:50,0.164,0.154,0.237,0.231,0.237,0.131,0.088,south-southwest,3.3,Yes
2021/07/28,20:00,0.163,0.151,0.234,0.228,0.234,0.131,0.087,south,3.3,No
2021/07/28,20:10,0.163,0.151,0.232,0.227,0.232,0.128,0.086,south-southwest,3.9,No
2021/07/28,20:20,0.162,0.150,0.234,0.227,0.234,0.129,0.085,south,3.6,Yes
2021/07/28,20:30,0.159,0.149,0.231,0.225,0.232,0.128,0.083,south,3.1,Yes
2021/07/28,20:40,0.160,0.148,0.229,0.224,0.228,0.125,0.082,south-southeast,2.4,No
2021/07/28,20:50,0.160,0.148,0.230,0.225,0.230,0.125,0.081,south,4.0,No
2021/07/28,21:00,0.157,0.147,0.229,0.222,0.230,0.124,0.081,south,3.4,No
2021/07/28,21:10,0.158,0.146,0.227,0.221,0.228,0.124,0.079,south-southwest,2.3,No
2021/07/28,21:20,0.159,0.147,0.229,0.224,0.228,0.124,0.080,south,2.1,No
2021/07/28,21:30,0.156,0.144,0.227,0.221,0.228,0.124,0.079,south-southeast,2.9,No
2021/07/28,21:40,0.157,0.145,0.226,0.218,0.226,0.122,0.079,south,2.8,No
2021/07/28,21:50,0.157,0.145,0.229,0.221,0.224,0.121,0.079,south,2.8,No
2021/07/28,22:00,0.157,0.144,0.226,0.220,0.228,0.123,0.079,south,2.2,No
2021/07/28,22:10,0.155,0.145,0.225,0.219,0.227,0.122,0.078,south,2.8,No
2021/07/28,22:20,0.156,0.144,0.228,0.222,0.224,0.122,0.079,south,2.8,No
2021/07/28,22:30,0.155,0.144,0.227,0.220,0.227,0.122,0.078,south-southwest,3.2,No
2021/07/28,22:40,0.156,0.145,0.226,0.220,0.228,0.122,0.078,south-southwest,2.4,No
2021/07/28,22:50,0.158,0.145,0.228,0.222,0.225,0.122,0.078,southwest,2.2,No
2021/07/28,23:00,0.157,0.144,0.226,0.221,0.228,0.123,0.078,southwest,1.6,No
2021/07/28,23:10,0.156,0.145,0.226,0.219,0.227,0.122,0.078,southwest,1.1,No
2021/07/28,23:20,0.157,0.144,0.228,0.223,0.225,0.122,0.079,southwest,0.7,No
2021/07/28,23:30,0.156,0.143,0.226,0.221,0.227,0.123,0.078,south-southwest,2.2,No
2021/07/28,23:40,0.155,0.145,0.226,0.219,0.227,0.122,0.078,south-southwest,2.6,No
2021/07/28,23:50,0.157,0.144,0.227,0.221,0.226,0.122,0.077,south-southwest,2.5,No
